Home   Weather   Prince Rupert   Past weeks
Flag for Canada

Past Weather in Prince Rupert, British Columbia, Canada — Yesterday and Last 2 Weeks

Now
50 °F

Mostly cloudy.


Feels Like: 45 °F
Forecast: 46 / 41 °F
Wind: 14 mph from Southeast

Location: Prince Rupert

Current Time: Apr 18, 2019 at 1:31:42 pm

Latest Report: Apr 18, 2019 at 1:00 pm


Visibility: 9 mi

Pressure: 29.98 "Hg

Humidity: 71%

Dew Point: 41 °F

Location of Prince RupertLocation

Past Weather in Prince Rupert — Graph

°F

Prince Rupert Temperature Yesterday

Maximum temperature yesterday: 46 °F (at 1:30 am)
Minimum temperature yesterday: 43 °F (at 4:00 pm)
Average temperature yesterday: 45 °F

High & Low Weather Summary for the Past Weeks

 TemperatureHumidityPressure
High55 °F (Apr 6, 3:00 pm)100% (Apr 9, 1:10 am)30.16 "Hg (Apr 9, 1:10 am)
Low34 °F (Apr 11, 7:00 am)44% (Apr 6, 3:00 pm)29.19 "Hg (Apr 6, 6:00 pm)
Average44 °F85%29.78 "Hg
* Reported Apr 3 12:00 pm — Apr 18 12:00 pm, Prince Rupert. Weather by CustomWeather, © 2019

Note: Actual official high and low records may vary slightly from our data, if they occured in-between our weather recording intervals... More about our weather records

Advertising

Prince Rupert Weather History for the Previous 24 Hours

Scroll right to see more
 ConditionsComfort  
Time TempWeatherWind HumidityBarometerVisibility
12:00 pm
Thu, Apr 18
48 °FMostly cloudy.13 mph71%29.99 "Hg9 mi
11:00 am48 °FMostly cloudy.13 mph71%29.98 "Hg9 mi
10:00 am46 °FMostly cloudy.10 mph71%29.97 "Hg9 mi
9:00 am46 °FOvercast.14 mph71%29.96 "Hg9 mi
8:00 am46 °FOvercast.13 mph71%29.96 "Hg9 mi
7:00 am46 °FOvercast.16 mph71%29.95 "Hg9 mi
6:00 am46 °FMostly cloudy.13 mph76%29.94 "Hg9 mi
5:00 am46 °FMostly cloudy.16 mph76%29.94 "Hg9 mi
4:00 am46 °FOvercast.13 mph71%29.93 "Hg9 mi
3:00 am48 °FPassing clouds.13 mph66%29.91 "Hg9 mi
2:19 am46 °FPartly cloudy.13 mph82%29.90 "Hg9 mi
2:08 am46 °FLight rain. Overcast.15 mph87%29.90 "Hg9 mi
1:51 am46 °FMostly cloudy.17 mph87%29.90 "Hg9 mi
1:00 am46 °FPassing clouds.20 mph82%29.87 "Hg9 mi
12:00 am46 °FOvercast.20 mph76%29.85 "Hg9 mi
11:00 pm
Wed, Apr 17
46 °FOvercast.23 mph76%29.85 "Hg9 mi
10:40 pm46 °FOvercast.30 mph76%29.84 "Hg9 mi
10:00 pm45 °FOvercast.18 mph76%29.84 "Hg9 mi
9:00 pm45 °FOvercast.23 mph76%29.85 "Hg9 mi
8:40 pm45 °FMore clouds than sun.23 mph76%29.85 "Hg9 mi
8:00 pm43 °FLight rain. More clouds than sun.20 mph87%29.86 "Hg9 mi
7:15 pm43 °FLight rain. Fog.21 mph87%29.88 "Hg6 mi
6:00 pm45 °FLight rain. Mostly cloudy.23 mph81%29.90 "Hg9 mi
5:00 pm43 °FLight rain. Mostly cloudy.21 mph87%29.93 "Hg9 mi
4:00 pm43 °FLight rain. Overcast.16 mph93%29.96 "Hg9 mi
3:00 pm45 °FLight rain. Mostly cloudy.15 mph87%29.98 "Hg9 mi
2:00 pm45 °FLight rain. Mostly cloudy.9 mph93%29.99 "Hg9 mi
1:43 pm45 °FLight rain. Cloudy.13 mph93%29.99 "Hg7 mi
1:38 pm45 °FLight rain. Fog.10 mph93%29.99 "Hg5 mi
1:00 pm46 °FLight rain. Mostly cloudy.7 mph87%30.00 "Hg8 mi
Weather by CustomWeather, © 2019

See weather overview